Location: Nedlitz
(52.1280°N, 11.8323°E)
Time: 06:56:26
(UTC+00:00)

Daily predictions for brighter satellites

Satellite Brightness Start Highest point End
(mag) Time Altitude Azimuth Time Altitude Azimuth Time Altitude Azimuth
SPOT 3 Rocket 3.7 19:17:34 10° SSE 19:22:47 89° WSW 19:28:02 10° NNW
Cosmos 2251 Rocket 3.5 19:19:35 10° SSW 19:24:51 82° ESE 19:30:11 10° NNE
Cosmos 1656 3.9 19:20:45 10° NNW 19:26:13 72° WSW 19:31:42 10° SSE
Cosmos 1707 Rocket 3.8 19:26:15 10° N 19:30:32 51° ENE 19:34:45 10° SSE
Cosmos 220 Rocket 4.0 19:26:35 10° NNW 19:30:49 88° WSW 19:35:02 10° SSE
Cosmos 1633 4.0 19:29:03 10° SSW 19:32:26 42° WNW 19:35:50 10° N
IRIDIUM 104 4.4 19:27:54 10° S 19:33:04 70° E 19:38:17 10° N
Resurs 01 Rocket 1.6 19:29:27 10° SSE 19:33:52 84° ENE 19:38:20 10° NNW
Landsat 7 4.3 19:30:53 10° SE 19:35:25 46° ENE 19:39:59 10° N
Cosmos 1441 Rocket 3.3 19:35:53 10° S 19:39:36 55° E 19:43:17 10° NNE
Cosmos 2360 4.3 19:35:51 10° NNW 19:41:38 74° ENE 19:47:22 10° SE
IRIDIUM 114 4.3 19:37:00 10° S 19:42:13 82° E 19:47:28 10° N
Cosmos 614 Rocket 4.1 19:38:18 10° S 19:43:20 55° ESE 19:48:26 10° NNE
IGS 5A 3.8 19:41:30 10° SSE 19:45:31 52° ENE 19:49:34 10° N
Cosmos 1900 4.3 19:41:40 10° SSW 19:46:37 76° SE 19:51:41 10° NE
USA 267 3.5 19:40:29 10° ENE 19:46:49 49° SE 19:53:07 10° SSW
GP-B 3.8 19:44:49 10° NNE 19:48:59 37° E 19:53:07 10° SSE
IRIDIUM 103 4.4 19:46:08 10° S 19:51:21 85° W 19:56:37 10° N
Cosmos 1821 Rocket 4.0 19:47:30 10° S 19:53:38 77° E 19:59:52 10° NNE
Cosmos 921 Rocket 3.9 19:50:44 10° N 19:54:39 34° ENE 19:58:03 13° ESE
CZ-2C R/B 3.9 19:50:14 10° NNE 19:54:55 81° WNW 19:59:29 10° SSW
COSMOS 2406 3.2 19:50:01 10° SSW 19:55:44 74° ESE 20:01:29 10° NNE
Cosmos 1862 Rocket 4.0 19:52:41 10° N 19:57:04 49° ENE 20:01:01 12° SSE
Intercosmos 25 3.8 19:52:07 10° NNW 19:57:04 66° W 20:00:32 10° S
SL-16 R/B 3.4 19:52:10 10° NNW 19:57:12 31° NE 20:02:13 10° ESE
ERS-1 Rocket 3.5 19:56:08 12° SE 20:00:36 45° ENE 20:05:24 10° N
Lacrosse 5 2.3 19:55:54 10° WNW 20:00:56 60° NNE 20:05:59 10° E
Cosmos 2369 3.9 19:56:41 10° NNW 20:02:27 74° WSW 20:08:05 10° SSE
Cosmos 1862 4.0 20:00:55 10° SSW 20:04:55 60° WNW 20:08:58 10° N
Sich 1 3.1 20:01:22 10° S 20:05:48 90° E 20:10:17 10° N
Cosmos 1818 4.3 20:02:00 10° NW 20:07:15 49° WSW 20:12:24 10° SSE
BREEZE-M DEB (TANK) 2.0 20:06:09 10° WSW 20:08:50 43° S 20:09:55 20° ESE
Cosmos 2082 Rocket 2.5 20:05:33 10° S 20:10:54 44° ESE 20:16:17 10° NE
Cosmos 2123 Rocket 4.0 20:05:26 10° N 20:11:41 83° E 20:17:56 10° SSE
Cosmos 2278 3.8 20:05:59 10° NNW 20:11:45 88° WSW 20:16:44 14° SSE
Spot 2 Rocket 3.6 20:11:28 10° SSE 20:16:35 83° WSW 20:21:44 10° NNW
Cosmos 1535 Rocket 4.5 20:10:40 10° S 20:16:45 68° E 20:22:49 10° NNE
Meteor 1-4 Rocket 2.6 20:16:02 10° NNW 20:19:32 73° W 20:22:26 14° S
Cosmos 2322 Rocket 3.3 20:14:31 10° NNW 20:19:45 35° NE 20:24:25 12° ESE
CZ-2C R/B 4.2 20:17:41 10° N 20:22:25 37° WNW 20:27:08 10° SW
Cosmos 1184 Rocket 3.1 20:21:01 17° SSE 20:23:19 47° E 20:26:32 10° NNE
CARTOSAT-1 3.7 20:20:05 17° SSE 20:23:22 65° ENE 20:27:40 10° N
Cosmos 1190 Rocket 4.0 20:18:25 10° SSW 20:23:40 71° ESE 20:28:58 10° NNE
USA 234 3.4 20:18:46 15° SE 20:24:16 65° SW 20:30:47 10° WNW
Terra 2.3 20:21:08 17° SE 20:24:31 46° ENE 20:29:05 10° N
Cosmos 407 Rocket 3.5 20:21:16 10° SSW 20:26:37 87° ESE 20:31:56 10° NNE
Cosmos 1933 Rocket 4.2 20:24:16 18° SSE 20:27:00 36° E 20:31:06 10° NNE
Cosmos 1605 Rocket 4.1 20:21:08 10° S 20:27:04 56° E 20:33:02 10° NNE
Cosmos 1666 Rocket 3.6 20:23:05 10° SSW 20:27:24 82° W 20:31:46 10° N
Meteor 1-20 Rocket 4.5 20:23:25 11° S 20:28:53 54° E 20:34:35 10° NNE
Okean 1 3.8 20:25:09 10° N 20:29:04 47° ENE 20:31:27 21° SE
Cosmos 1238 Rocket 2.8 20:28:02 24° SE 20:29:14 35° E 20:31:58 10° NNE
Cosmos 1602 4.5 20:31:37 22° SE 20:33:33 36° E 20:37:10 10° NNE
Cosmos 1437 Rocket 3.5 20:30:00 10° N 20:33:35 36° ENE 20:35:27 22° ESE
Cosmos 2360 Rocket 3.6 20:28:54 10° NNW 20:33:49 29° NE 20:38:35 10° E
CZ-4B DEB 4.3 20:35:36 22° S 20:37:40 83° WSW 20:41:02 10° NNW
Meteor 1-19 Rocket 4.3 20:33:12 10° N 20:38:35 60° ENE 20:42:13 21° SSE
ERBS 3.4 20:35:25 10° W 20:38:38 45° NNW 20:41:51 10° ENE
SPOT 5 2.5 20:35:55 20° SSE 20:38:51 78° ENE 20:43:13 10° NNW
USA 238 DEB 4.0 20:33:29 10° S 20:39:37 41° ESE 20:46:01 10° NE
USA 238 4.0 20:33:37 10° S 20:39:44 41° ESE 20:46:06 10° NE
Cosmos 1980 Rocket 2.5 20:37:15 10° NW 20:42:52 61° WSW 20:47:05 18° S
Iridium 4 Rocket 4.4 20:41:58 19° ESE 20:43:33 23° E 20:46:55 10° NNE
SPOT 1/Viking Rocket 4.0 20:39:53 13° S 20:44:32 61° WSW 20:49:44 10° NNW
Cosmos 1703 Rocket 3.8 20:40:28 10° N 20:44:46 54° ENE 20:47:05 25° SE
Cosmos 2242 Rocket 3.6 20:40:21 10° N 20:44:49 72° ENE 20:47:29 23° SSE
Cosmos 1763 Rocket 3.7 20:42:31 10° NNW 20:47:50 65° ENE 20:51:08 23° SE
Genesis I 3.9 20:45:04 10° NW 20:48:47 44° SW 20:50:44 24° S
SL-4 R/B 2.1 20:45:41 10° SW 20:49:19 40° SSE 20:51:35 18° E
BREEZE-M DEB (TANK) 2.8 20:46:50 10° WSW 20:49:52 65° S 20:58:46 10° E
Cosmos 405 Rocket 2.8 20:49:22 27° SSE 20:51:06 53° E 20:54:45 10° NNE
ATLAS 5 CENTAUR R/B 4.4 20:47:22 10° WNW 20:51:23 19° WSW 20:55:45 10° SSW
Cosmos 1140 Rocket 3.7 20:47:02 10° SSW 20:52:18 76° WNW 20:57:35 10° NNE
Cosmos 2333 Rocket 4.1 20:49:13 10° NNW 20:53:42 22° NNE 20:58:09 10° E
FAST 4.4 20:51:05 10° N 20:54:01 70° E 20:54:41 45° SSE
USA 32 4.2 20:53:02 11° SSW 20:58:08 76° W 21:03:24 10° N
Cosmos 1697 Rocket 4.2 20:53:31 10° NW 20:58:13 28° WSW 21:02:55 10° SSW
Cosmos 1633 Rocket 4.0 20:56:30 10° SSW 21:00:48 48° WNW 21:05:07 10° N
Cosmos 1833 Rocket 3.3 20:56:05 10° SW 21:01:38 59° NW 21:07:13 10° NNE
Meteor 1-18 Rocket 4.2 21:00:36 10° NNW 21:06:14 80° W 21:09:50 23° S
Okean 1-7 3.0 21:02:07 10° N 21:06:29 78° ENE 21:08:30 31° SSE
Cosmos 1153 Rocket 4.4 21:03:26 19° S 21:07:56 72° E 21:14:06 10° NNE
Cosmos 1867 3.5 21:02:33 10° SSW 21:07:59 74° SE 21:13:27 10° NE
CENTAUR R/B 3.0 21:04:46 21° S 21:08:10 38° ESE 21:14:34 10° NE
Resurs 01 Rocket 4.2 21:08:40 10° WSW 21:10:59 14° W 21:13:18 10° NW
Okean 3 4.2 21:08:24 10° N 21:12:29 40° ENE 21:13:59 29° ESE
FALCON 9 DEB 3.3 21:11:37 10° SW 21:15:00 48° SSE 21:15:21 46° SE
Meteor 2-4 Rocket 3.7 21:10:12 10° N 21:15:57 73° ENE 21:18:54 29° SSE
Cosmos 1515 3.7 21:13:03 10° NNW 21:16:55 78° W 21:18:23 36° S
Cosmos 1850 Rocket 4.2 21:14:18 27° S 21:16:57 51° ESE 21:22:04 10° NNE
SL-27 R/B 3.5 21:19:37 27° E 21:19:37 27° E 21:22:00 10° NE
Cosmos 44 3.5 21:15:43 10° NW 21:20:33 69° NE 21:23:09 28° ESE
ATLAS 5 CENTAUR R/B 1.8 21:18:28 10° NW 21:20:56 73° NE 21:23:25 26° ESE
Cosmos 676 Rocket 4.3 21:15:54 10° SSW 21:21:13 70° WNW 21:26:35 10° NNE
SWARM C 4.5 21:18:34 10° N 21:21:55 80° W 21:22:48 46° S
SWARM A 4.3 21:18:40 10° N 21:22:00 72° W 21:22:58 43° SSW
Cosmos 1470 Rocket 4.4 21:19:31 12° SSW 21:23:30 49° WNW 21:27:48 10° N
Spot 4 4.3 21:27:26 30° SE 21:29:25 49° ENE 21:34:05 10° N
USA 267 3.4 21:23:34 10° ENE 21:30:08 80° NNW 21:36:41 10° WSW
Cosmos 921 Rocket 4.3 21:29:09 10° NW 21:32:53 30° W 21:34:51 21° SW
NOSS 3-2 (A) 3.3 21:28:15 10° SW 21:34:02 79° SE 21:40:47 10° NE
ERS-1 Rocket 4.4 21:36:08 15° SSW 21:39:34 31° W 21:44:02 10° NNW
Cosmos 841 Rocket 3.4 21:34:35 10° NNW 21:39:51 88° ENE 21:42:00 37° SSE
NOSS 3-2 (C) 3.4 21:35:51 19° SSW 21:39:58 59° SE 21:46:30 10° NE
Cosmos 540 Rocket 3.4 21:36:05 10° NNW 21:41:18 87° ENE 21:43:22 38° SSE
SL-16 R/B 2.3 21:36:08 10° NW 21:41:47 68° WSW 21:44:17 34° S
Lacrosse 5 2.0 21:39:00 10° WNW 21:43:58 56° SW 21:45:31 39° SSE
Cosmos 1570 Rocket 4.0 21:45:48 10° NNW 21:51:07 76° WSW 21:53:10 38° S
Cosmos 1741 Rocket 3.9 21:48:23 27° SSW 21:51:21 87° ESE 21:56:41 10° NNE
Tsikada Rocket 4.2 21:45:42 10° N 21:52:03 63° ENE 21:54:55 33° SE
Cosmos 2219 Rocket 3.3 21:47:40 10° NNW 21:52:58 37° NE 21:56:37 18° ESE
Cosmos 2208 Rocket 3.9 21:47:55 10° NNW 21:53:15 85° WSW 21:55:11 40° SSE
Cosmos 1814 Rocket 3.9 21:48:23 10° NNW 21:53:37 88° WSW 21:55:32 41° SSE
Cosmos 2082 Rocket 3.4 21:49:40 10° WSW 21:55:04 43° NW 22:00:29 10° NNE
Cosmos 2237 4.2 21:52:29 10° NNW 21:58:15 87° ENE 22:00:35 38° SSE
Cosmos 2084 Rocket 3.9 21:59:01 41° ESE 21:59:01 41° ESE 22:02:41 10° NE
Terra 3.3 22:00:02 18° SW 22:02:28 28° W 22:06:34 10° NW
Cosmos 2322 Rocket 2.5 21:58:32 10° NW 22:04:07 57° WSW 22:06:13 36° S
EO 1 Del DPAF 3.6 22:01:22 10° NNE 22:04:57 45° E 22:04:57 45° E
Cosmos 2100 Rocket 4.2 22:05:35 25° SSW 22:09:18 69° WNW 22:15:28 10° N
Meteor 1-11 Rocket 3.7 22:09:09 40° S 22:11:15 73° E 22:17:00 10° NNE
Cosmos 1242 Rocket 2.6 22:08:22 10° N 22:11:58 65° ENE 22:12:07 64° E
Helios 1A 4.3 22:13:11 25° E 22:14:25 30° ENE 22:18:06 10° N
Cosmos 1869 Rocket 4.2 22:13:01 30° SW 22:14:53 51° WNW 22:19:16 10° N
ERBS 3.9 22:12:18 10° WNW 22:15:23 34° N 22:18:11 12° ENE
Cosmos 2360 Rocket 2.2 22:12:43 10° NNW 22:18:24 76° WSW 22:20:20 43° SSE
COSMOS 2428 3.4 22:13:55 10° NNW 22:19:29 48° NE 22:22:37 25° ESE
ATLAS 3B R/B 2.9 22:21:12 38° SSE 22:23:05 48° ESE 22:29:25 10° NE
Iridium 4 Rocket 4.0 22:21:45 29° SW 22:23:21 41° W 22:27:22 10° N
Cosmos 2173 Rocket 4.4 22:21:11 24° SW 22:24:55 58° WNW 22:30:59 10° N
CRYOSAT 2 4.4 22:20:18 10° N 22:25:11 73° W 22:26:46 43° SSW
Cosmos 1500 4.4 22:25:10 28° WSW 22:26:18 35° WNW 22:29:47 10° N
ALOS 2 2.5 22:27:44 59° SSE 22:28:33 86° ENE 22:32:59 10° NNW
SL-4 R/B 2.8 22:25:00 10° W 22:27:13 33° WSW 22:27:13 33° WSW
Cosmos 1725 Rocket 4.0 22:27:19 36° SSW 22:30:08 86° WNW 22:36:31 10° N
USA 238 DEB 4.1 22:23:41 10° WSW 22:30:21 65° NW 22:37:21 10° NE
Nimbus 7 Rocket 4.5 22:24:33 10° NNE 22:30:23 61° ESE 22:32:15 42° SSE
USA 238 4.1 22:23:47 10° WSW 22:30:27 65° NW 22:37:27 10° NE
Cosmos 1674 Rocket 3.4 22:28:13 10° NNW 22:32:34 87° W 22:33:13 64° S
SL-08 R/B 4.4 22:32:19 36° SSW 22:34:59 79° W 22:41:07 10° N
Cosmos 1536 2.8 22:34:39 65° SW 22:35:08 75° WNW 22:39:08 10° N
Cosmos 1666 3.0 22:37:32 52° WSW 22:37:56 55° WNW 22:41:39 10° N
Cosmos 1743 3.2 22:38:17 48° E 22:38:17 48° E 22:41:59 10° NNE
Cosmos 2333 Rocket 2.3 22:33:12 10° NNW 22:39:00 73° ENE 22:41:19 38° SE
Cosmos 1271 Rocket 2.6 22:36:55 10° N 22:40:41 70° ENE 22:40:47 69° E
Cosmos 1356 3.8 22:41:30 55° WNW 22:41:31 55° WNW 22:44:54 10° N
Cosmos 2237 Rocket 3.6 22:37:57 10° NNW 22:43:06 34° NE 22:47:32 13° ESE
Cosmos 2016 Rocket 4.3 22:39:51 29° SSW 22:43:08 62° WNW 22:49:29 10° N
MOS 1-B Rocket 4.3 22:38:02 10° N 22:43:42 58° WNW 22:46:44 27° SW
Cosmos 2061 Rocket 4.3 22:41:23 29° SW 22:44:32 60° WNW 22:50:41 10° N
Lacrosse 4 Rocket 2.3 22:45:23 36° E 22:45:23 36° E 22:48:43 10° NE
Cosmos 1733 Rocket 3.3 22:50:59 49° SW 22:51:54 62° WNW 22:56:18 10° N
Meteor 2-11 Rocket 4.5 22:51:22 43° SSE 22:53:22 69° E 22:59:27 10° NNE
SL-27 R/B 4.3 22:53:08 21° W 22:54:10 24° NW 22:56:58 10° N
Thor Agena Rocket 3.9 22:49:58 10° N 22:54:58 59° WNW 22:57:00 34° SW
Cosmos 44 Rocket 3.6 22:50:32 10° NW 22:55:29 68° NE 22:57:31 36° ESE
Cosmos 836 Rocket 4.4 22:51:33 10° NNW 22:56:48 83° WSW 22:58:03 53° SSE
CENTAUR R/B 3.0 22:52:13 10° WSW 22:58:28 67° NW 23:05:57 10° NE
Cosmos 968 Rocket 3.6 22:59:01 49° SE 22:59:48 54° ESE 23:04:48 10° NNE
Cosmos 1975 3.4 23:02:22 44° E 23:02:25 44° E 23:06:15 10° NNE
SL-24 DEB 4.2 22:59:36 10° N 23:04:25 79° E 23:05:18 59° SSE
Cosmos 1782 Rocket 3.9 23:10:37 49° ESE 23:10:59 51° E 23:15:13 10° NNE
Cosmos 1378 3.9 23:09:04 10° NNW 23:12:29 41° W 23:12:29 41° W
USA 267 3.8 23:06:30 10° ENE 23:12:54 59° N 23:19:19 10° W
Cosmos 1707 3.9 23:11:58 10° N 23:15:35 34° ENE 23:16:13 32° E
Cosmos 2233 Rocket 4.3 23:14:30 35° SW 23:17:12 63° WNW 23:23:31 10° N
Cosmos 1842 3.1 23:13:37 10° N 23:17:35 87° ENE 23:17:41 85° SE
Cosmos 1464 Rocket 4.2 23:15:36 40° SSE 23:17:45 60° E 23:23:50 10° NNE
Cosmos 1908 Rocket 3.4 23:18:33 66° SSW 23:19:06 80° W 23:23:31 10° N
Cosmos 2344 4.4 23:10:53 10° NW 23:19:46 75° NE 23:32:06 10° SE
Helios 1B rocket 3.6 23:18:00 10° NE 23:21:38 29° E 23:21:48 29° E
Meteor 1-21 4.2 23:17:35 10° NNW 23:23:27 85° ENE 23:25:22 45° SSE
Cosmos 2227 Rocket 4.0 23:22:42 15° ESE 23:24:03 16° E 23:27:28 10° ENE
SL-16 R/B 4.3 23:22:26 10° WNW 23:24:50 13° W 23:26:08 12° WSW
Lacrosse 5 4.0 23:23:25 10° W 23:24:41 13° WSW 23:24:41 13° WSW
Cosmos 2322 4.2 23:23:10 10° NW 23:28:31 44° WSW 23:29:31 40° SW
NOSS 3-2 (C) 4.4 23:25:16 10° WSW 23:31:07 48° NNW 23:37:56 10° NE
Cosmos 1833 4.4 23:28:44 34° SW 23:31:13 67° NW 23:36:53 10° NNE
COSMOS 2487 3.3 23:32:14 41° WNW 23:32:19 41° WNW 23:35:37 10° NNE
Nadezhda 4 Rocket 4.1 23:29:10 10° N 23:35:30 75° ENE 23:38:03 38° SSE
Cosmos 2219 Rocket 2.4 23:31:38 10° NW 23:37:09 53° WSW 23:38:19 45° SSW
Cosmos 783 Rocket 4.4 23:35:52 10° NNW 23:41:07 75° WSW 23:42:23 52° S
Cosmos 1975 Rocket 3.1 23:37:25 10° NNW 23:41:54 65° W 23:42:25 59° SW
Cosmos 1437 3.8 23:42:07 10° N 23:44:31 38° NE 23:44:31 38° NE
Cosmos 1513 Rocket 4.5 23:42:38 42° S 23:45:02 89° W 23:51:31 10° N
Okean 2 Rocket 3.6 23:45:22 43° SE 23:46:08 48° E 23:50:28 10° NNE
Cosmos 2034 Rocket 4.1 23:43:53 40° SSE 23:46:12 70° E 23:52:30 10° NNE
Cosmos 2322 Rocket 4.4 23:46:08 10° W 23:46:56 10° W 23:47:44 10° WSW
Cosmos 1503 Rocket 4.0 23:45:55 50° SSW 23:47:24 86° ESE 23:52:49 10° NNE
Cosmos 1072 Rocket 4.4 23:46:51 42° SSW 23:49:02 80° W 23:55:11 10° N
Landsat 4 3.5 23:45:17 10° NNE 23:49:07 87° ESE 23:49:12 85° SSE
Cosmos 1092 Rocket 4.3 23:43:28 10° N 23:49:42 62° ENE 23:52:45 31° SE
Helios 1A 3.8 23:49:48 36° W 23:49:54 36° W 23:53:49 10° NNW
SL-16 R/B 3.4 23:46:15 16° SE 23:51:03 45° ENE 23:56:58 10° N
ERBS 3.2 23:48:41 10° WNW 23:51:02 42° NW 23:51:02 42° NW
CZ-2D R/B 3.9 23:48:04 10° NE 23:52:25 23° E 23:54:54 17° SE
Cosmos 1300 Rocket 3.9 23:52:28 46° SE 23:53:06 51° E 23:57:18 10° NNE
SL-16 R/B 3.4 23:47:56 10° NNW 23:53:20 41° NE 23:58:42 10° ESE
Cosmos 1486 Rocket 4.5 23:52:12 34° WSW 23:54:11 54° WNW 23:59:19 10° NNE
Cosmos 1544 3.9 23:54:38 40° WNW 23:54:44 40° WNW 23:58:14 10° N
